Weather History for EICK - April, 2013

Change the Weather History Date:

Tuesday, April 30, 2013

  Actual Average Record
Temperature  
Mean Temperature 45 °F -  
Max Temperature 53 °F 57 °F 62 °F (2011)
Min Temperature 37 °F 44 °F 37 °F (2013)
Degree Days  
Heating Degree Days 20    
Moisture  
Dew Point 38 °F    
Average Humidity 77    
Maximum Humidity 100    
Minimum Humidity 38    
Precipitation  
Precipitation 0.00 in 0.11 in - ()
Sea Level Pressure  
Sea Level Pressure 30.33 in    
Wind  
Wind Speed 9 mph ()    
Max Wind Speed 12 mph    
Max Gust Speed -    
Visibility 6.2 miles    
Events      
Averages and records for this station are not official NWS values.
T = Trace of Precipitation, MM = Missing Value Source: Averaged Metar Reports

Daily Weather History Graph

Daily Weather History Graph

Search for Another Location

Airport or City:

Trip Planner

Search our weather history database for the weather conditions in past years. The results will help you decide how hot, cold, wet, or windy it might be!

Date:

Astronomy

Apr. 30, 2013 Rise Set
Actual Time 6:06 AM IST 8:56 PM IST
Civil Twilight 5:28 AM IST 9:35 PM IST
Nautical Twilight 4:38 AM IST 10:25 PM IST
Astronomical Twilight 3:36 AM IST 11:28 PM IST
Moon 1:18 AM IST (4/30) 10:10 AM IST (4/30)
Length of Visible Light 16h 07m
Length of Day
14h 50m
Waning Gibbous, 72% of the Moon is Illuminated
Apr 30
Waning Gibbous
May 2
Last Quarter
May 10
New
May 18
First Quarter
May 25
Full

Hourly Weather History & Observations

Time (IST) Temp. Windchill Dew Point Humidity Pressure Visibility Wind Dir Wind Speed Gust Speed Precip Events Conditions
12:00 AM 42.8 °F 36.6 °F 37.4 °F 81% 30.30 in 6.2 mi NW 11.5 mph - N/A   Partly Cloudy
12:30 AM 41.0 °F 34.7 °F 37.4 °F 87% 30.30 in 6.2 mi NW 10.4 mph - N/A   Partly Cloudy
1:00 AM 41 °F - 38 °F 83% 30.35 in 31 mi NW 8.9 mph - -   Scattered Clouds
1:00 AM 41.0 °F 35.2 °F 37.4 °F 87% 30.30 in 6.2 mi NW 9.2 mph - N/A   Partly Cloudy
1:30 AM 41.0 °F 34.7 °F 37.4 °F 87% 30.30 in 6.2 mi NW 10.4 mph - N/A   Partly Cloudy
2:00 AM 41.0 °F 34.7 °F 37.4 °F 87% 30.30 in 6.2 mi NW 10.4 mph - N/A   Partly Cloudy
2:30 AM 41.0 °F 34.7 °F 37.4 °F 87% 30.30 in 6.2 mi NW 10.4 mph - N/A   Partly Cloudy
3:00 AM 39.2 °F 34.2 °F 37.4 °F 93% 30.33 in 6.2 mi NNW 6.9 mph - N/A   Partly Cloudy
3:30 AM 39.2 °F 33.0 °F 37.4 °F 93% 30.30 in 6.2 mi NW 9.2 mph - N/A   Partly Cloudy
4:00 AM 39.2 °F 33.0 °F 37.4 °F 93% 30.30 in 6.2 mi NW 9.2 mph - N/A   Partly Cloudy
4:30 AM 39.2 °F 33.6 °F 37.4 °F 93% 30.30 in 6.2 mi NW 8.1 mph - N/A   Partly Cloudy
5:00 AM 39.2 °F 33.0 °F 37.4 °F 93% 30.33 in 6.2 mi NW 9.2 mph - N/A   Partly Cloudy
5:30 AM 37.4 °F 30.3 °F 35.6 °F 93% 30.33 in 6.2 mi NW 10.4 mph - N/A   Partly Cloudy
6:00 AM 37.4 °F 30.3 °F 37.4 °F 100% 30.33 in 6.2 mi NNW 10.4 mph - N/A   Partly Cloudy
6:30 AM 37.4 °F 30.3 °F 37.4 °F 100% 30.33 in 6.2 mi NNW 10.4 mph - N/A   Partly Cloudy
7:00 AM 39 °F - 38 °F 93% 30.38 in 25 mi NNW 11.2 mph - -   Scattered Clouds
7:00 AM 39.2 °F 32.5 °F 37.4 °F 93% 30.33 in 6.2 mi NNW 10.4 mph - N/A   Partly Cloudy
7:30 AM 39.2 °F 32.5 °F 37.4 °F 93% 30.33 in 6.2 mi NNW 10.4 mph - N/A   Partly Cloudy
8:00 AM 41.0 °F 34.7 °F 39.2 °F 93% 30.36 in 6.2 mi NNW 10.4 mph - N/A   Partly Cloudy
8:30 AM 42.8 °F 36.6 °F 39.2 °F 87% 30.36 in 6.2 mi NNW 11.5 mph - N/A   Partly Cloudy
9:00 AM 44.6 °F 38.8 °F 41.0 °F 87% 30.36 in 6.2 mi NNW 11.5 mph - N/A   Partly Cloudy
9:30 AM 46.4 °F 42.4 °F 41.0 °F 81% 30.36 in 6.2 mi North 8.1 mph - N/A   Partly Cloudy
10:00 AM 48.2 °F - 39.2 °F 71% 30.36 in 6.2 mi North 8.1 mph - N/A   Scattered Clouds
10:30 AM 48.2 °F - 37.4 °F 66% 30.36 in 6.2 mi NNW 11.5 mph - N/A   Scattered Clouds
11:00 AM 50.0 °F - 37.4 °F 62% 30.36 in 6.2 mi North 8.1 mph - N/A   Scattered Clouds
11:30 AM 50.0 °F - 37.4 °F 62% 30.36 in 6.2 mi North 9.2 mph - N/A   Scattered Clouds
12:00 PM 50.0 °F - 35.6 °F 58% 30.36 in 6.2 mi North 9.2 mph - N/A   Scattered Clouds
12:30 PM 51.8 °F - 35.6 °F 54% 30.36 in 6.2 mi North 6.9 mph - N/A   Scattered Clouds
1:00 PM 51 °F - 33 °F 38% 30.37 in 31 mi NNW 6.7 mph - -   Mostly Cloudy
1:00 PM 51.8 °F - 33.8 °F 50% 30.36 in 6.2 mi NNW 6.9 mph - N/A   Mostly Cloudy
1:30 PM 51.8 °F - 35.6 °F 54% 30.36 in 6.2 mi NW 4.6 mph - N/A   Mostly Cloudy
2:00 PM 51.8 °F - 33.8 °F 50% 30.33 in 6.2 mi NNW 4.6 mph - N/A   Mostly Cloudy
2:30 PM 51.8 °F - 35.6 °F 54% 30.33 in 6.2 mi WNW 4.6 mph - N/A   Mostly Cloudy
3:00 PM 50.0 °F - 41.0 °F 71% 30.33 in 6.2 mi SSW 10.4 mph - N/A   Mostly Cloudy
3:30 PM 50.0 °F - 41.0 °F 71% 30.33 in 6.2 mi SSW 11.5 mph - N/A   Mostly Cloudy
4:00 PM 50.0 °F - 42.8 °F 76% 30.33 in 6.2 mi SSW 11.5 mph - N/A   Mostly Cloudy
4:30 PM 50.0 °F - 42.8 °F 76% 30.33 in 6.2 mi SSW 10.4 mph - N/A   Mostly Cloudy
5:00 PM 48.2 °F - 42.8 °F 82% 30.33 in 6.2 mi SSW 11.5 mph - N/A   Mostly Cloudy
5:30 PM 48.2 °F - 42.8 °F 82% 30.33 in 6.2 mi SSW 9.2 mph - N/A   Mostly Cloudy
6:00 PM 48.2 °F - 41.0 °F 76% 30.30 in 6.2 mi SSW 10.4 mph - N/A   Mostly Cloudy
6:30 PM 48.2 °F - 41.0 °F 76% 30.30 in 6.2 mi SW 9.2 mph - N/A   Mostly Cloudy
7:00 PM 49 °F - 41 °F 66% 30.33 in 31 mi SW 8.9 mph - -   Mostly Cloudy
7:00 PM 48.2 °F - 41.0 °F 76% 30.30 in 6.2 mi SW 8.1 mph - N/A   Mostly Cloudy
7:30 PM 48.2 °F - 41.0 °F 76% 30.30 in 6.2 mi SW 6.9 mph - N/A   Mostly Cloudy
8:00 PM 48.2 °F - 42.8 °F 82% 30.30 in 6.2 mi SW 4.6 mph - N/A   Mostly Cloudy
8:30 PM 48.2 °F - 42.8 °F 82% 30.30 in 6.2 mi SW 3.5 mph - N/A   Mostly Cloudy
9:00 PM 48.2 °F - 42.8 °F 82% 30.33 in 6.2 mi SW 2.3 mph - N/A   Mostly Cloudy
9:30 PM 48.2 °F - 39.2 °F 71% 30.33 in 6.2 mi NW 9.2 mph - N/A   Mostly Cloudy
10:00 PM 48.2 °F - 39.2 °F 71% 30.33 in 6.2 mi NW 6.9 mph - N/A   Mostly Cloudy
10:30 PM 46.4 °F 41.9 °F 35.6 °F 66% 30.33 in 6.2 mi NW 9.2 mph - N/A   Mostly Cloudy
11:00 PM 46.4 °F 41.9 °F 35.6 °F 66% 30.33 in 6.2 mi NW 9.2 mph - N/A   Mostly Cloudy
11:30 PM 44.6 °F 40.7 °F 33.8 °F 66% 30.33 in 6.2 mi NW 6.9 mph - N/A   Scattered Clouds